Location: Poughquag
(41.6090°N, 73.6820°W)
Time: 12:47:53
(UTC-04:00)

Altair - Pass Details

Date: 31 May 2020
Orbit: 1501 x 1683 km, 47.2° (Epoch: 05 July)

Event Time Altitude Azimuth Distance (km) Brightness Sun altitude
Rises 02:50:20 0° 286° (WNW) 4,915 10.0 -20.8°
Reaches altitude 10° 02:53:32 10° 289° (WNW) 3,938 9.5 -20.5°
Maximum altitude 03:03:42 70° 13° (NNE) 1,773 7.9 -19.5°
Drops below altitude 10° 03:13:47 10° 97° (E) 3,912 10.0 -18.5°
Sets 03:16:57 0° 100° (E) 4,882 10.5 -18.1°
